Location: Napa Soda Springs
(38.3907°N, 122.2794°W)
Time: 21:40:17
(UTC+00:00)

Meteor PRIRODA - Pass Details

Date: 29 October 2020
Orbit: 491 x 509 km, 97.6° (Epoch: 24 November)

Event Time Altitude Azimuth Distance (km) Brightness Sun altitude
Rises 13:11:32 0° 16° (NNE) 2,585 7.4 -16.5°
Reaches altitude 10° 13:13:38 10° 20° (NNE) 1,701 6.5 -16.1°
Maximum altitude 13:17:15 58° 101° (E) 583 4.2 -15.4°
Drops below altitude 10° 13:20:51 10° 181° (S) 1,698 6.4 -14.7°
Sets 13:22:57 0° 185° (S) 2,580 7.3 -14.3°
